Date,TemperatureHighF,TemperatureAvgF,TemperatureLowF,DewpointHighF,DewpointAvgF,DewpointLowF,HumidityHigh,HumidityAvg,HumidityLow,PressureMaxIn,PressureMinIn,WindSpeedMaxMPH,WindSpeedAvgMPH,GustSpeedMaxMPH,PrecipitationSumIn
2013-1-1,16.7,3.7,-10.9,7.7,-2.6,-14.6,98,75,56,30.33,30.20,7,1,7,0.00
2013-1-2,24.4,17.7,10.9,15.9,11.0,6.4,85,75,57,30.20,30.05,7,2,7,0.00
2013-1-3,26.4,19.5,8.1,21.1,15.2,4.0,88,83,75,30.26,30.08,11,3,11,0.00
2013-1-4,31.1,19.3,7.6,21.0,13.7,3.6,87,79,63,30.22,30.11,13,4,13,0.00
2013-1-5,34.4,22.4,5.0,31.0,18.5,1.9,98,85,79,30.23,29.89,11,3,11,0.00
2013-1-6,29.8,21.0,9.0,24.2,16.2,5.4,92,82,73,30.29,29.91,12,2,12,0.00
2013-1-7,37.7,26.9,10.7,27.4,20.7,7.8,90,78,64,30.26,30.01,17,4,17,0.01
2013-1-8,39.3,28.3,10.3,32.9,23.3,7.5,94,82,69,30.08,29.89,15,2,15,0.04
2013-1-9,38.4,31.9,18.1,32.5,25.2,14.2,87,76,62,30.45,29.90,20,5,20,0.01
2013-1-10,42.0,28.1,13.1,35.0,22.9,10.5,96,83,49,30.48,29.83,9,1,9,0.24
2013-1-11,46.4,39.3,34.6,44.5,38.4,33.5,98,96,90,29.83,29.53,12,2,12,0.06
2013-1-12,47.9,31.3,19.8,43.5,25.4,13.0,91,78,71,30.03,29.52,22,7,22,0.00
2013-1-13,19.8,14.0,10.3,13.2,7.2,4.4,79,74,67,30.27,29.94,13,4,13,0.00
2013-1-14,24.3,13.7,7.1,13.8,7.8,3.3,87,78,62,30.48,30.26,12,2,12,0.00
2013-1-15,30.7,20.1,7.5,17.5,12.8,4.7,92,74,55,30.44,30.05,13,3,13,0.00
2013-1-16,32.9,27.3,20.0,29.7,21.3,12.9,90,78,69,30.12,29.77,17,4,17,0.00
2013-1-17,26.4,19.0,11.7,17.9,9.0,2.4,86,65,48,30.42,30.12,11,2,11,0.00
2013-1-18,45.3,31.0,11.7,34.2,24.0,8.3,88,76,61,30.42,29.81,10,4,26,0.00
2013-1-19,46.9,36.2,15.2,35.3,27.9,4.2,86,72,49,29.98,29.64,12,5,29,0.00
2013-1-20,15.0,9.9,5.8,2.0,-0.4,-2.2,72,63,48,30.35,30.03,7,3,23,0.00
2013-1-21,9.6,-0.5,-3.4,4.4,-7.6,-10.1,79,71,57,30.36,30.20,8,3,17,0.00
2013-1-22,8.6,0.9,-7.1,-0.8,-6.8,-12.1,80,70,58,30.44,30.35,11,2,11,0.00
2013-1-23,19.3,11.3,1.1,13.6,4.5,-7.3,89,74,66,30.53,30.12,18,4,18,0.00
2013-1-24,13.4,5.6,-2.8,6.4,-2.5,-8.6,85,69,58,30.72,30.36,8,2,11,0.00
2013-1-25,24.5,18.2,11.1,17.4,12.1,4.7,88,77,65,30.36,29.96,15,3,15,0.00
2013-1-26,25.1,15.6,1.9,14.5,7.0,-1.8,88,69,51,30.44,30.26,8,1,8,0.00
2013-1-27,32.6,28.1,23.3,31.5,23.3,14.4,96,82,68,30.32,29.83,11,2,11,0.00
2013-1-28,37.2,34.3,31.5,34.6,32.5,29.7,97,93,86,29.94,29.71,8,1,8,0.27
2013-1-29,50.2,40.0,33.6,49.7,39.0,32.3,100,96,92,29.76,29.49,11,2,11,0.79
2013-1-30,33.6,25.2,13.7,32.2,23.1,9.2,96,92,82,29.66,29.33,19,3,19,0.01
2013-1-31,13.7,8.8,-0.8,9.2,3.1,-6.2,86,77,65,30.22,29.66,10,3,15,0.00
2013-2-1,6.3,-0.0,-10.2,1.0,-6.4,-14.7,85,74,56,30.38,30.17,12,3,12,0.00
2013-2-2,15.8,6.9,-1.7,5.6,1.2,-6.3,87,78,58,30.18,30.05,7,1,7,0.01
2013-2-3,21.8,13.1,2.7,12.4,7.1,-0.5,91,78,57,30.08,29.98,12,2,12,0.00
2013-2-4,24.5,14.2,5.5,12.4,7.9,0.3,90,77,50,30.03,29.94,11,2,11,0.00
2013-2-5,30.5,20.2,1.7,25.1,15.8,-1.9,90,83,74,30.13,29.78,14,3,14,0.00
2013-2-6,32.1,15.9,-6.1,29.0,11.4,-9.9,92,83,68,30.23,30.05,8,1,8,0.00
2013-2-7,34.5,31.4,25.1,33.0,29.8,22.2,95,94,89,30.15,29.95,8,0,8,0.00
2013-2-8,32.7,20.2,0.1,22.3,14.0,-3.6,89,78,56,30.40,30.15,6,1,6,0.01
2013-2-9,29.5,19.7,-2.2,26.0,16.7,-5.6,93,88,82,30.40,30.06,12,3,12,0.00
2013-2-10,41.8,34.3,27.7,41.0,32.7,25.8,97,94,87,30.06,29.33,18,3,18,0.07
2013-2-11,35.9,29.8,23.5,34.1,25.8,19.1,93,85,77,30.01,29.33,26,8,26,0.01
2013-2-12,32.9,25.1,20.6,24.2,19.7,16.0,88,80,69,30.09,29.84,11,4,11,0.00
2013-2-13,42.2,29.1,13.5,31.6,23.7,11.3,94,81,60,29.85,29.63,7,1,7,0.03
2013-2-14,35.7,32.7,23.3,33.2,26.8,15.4,94,80,63,30.05,29.55,21,3,21,0.05
2013-2-15,27.2,17.9,8.2,15.3,8.0,1.7,79,65,47,30.26,30.05,13,2,16,0.00
2013-2-16,18.7,11.4,1.0,6.6,2.8,-3.2,82,69,51,30.25,30.18,11,1,11,0.00
2013-2-17,27.4,13.4,-4.6,20.5,6.0,-8.2,95,73,53,30.24,29.90,11,2,11,0.00
2013-2-18,43.6,32.9,20.2,34.2,26.7,16.4,89,78,67,29.91,29.50,15,4,15,0.00
2013-2-19,20.2,12.4,6.7,16.3,5.3,-2.1,89,73,61,30.27,29.60,21,5,21,0.00
2013-2-20,24.1,13.8,3.9,11.8,4.9,-2.8,79,68,55,30.43,30.27,7,2,9,0.00
2013-2-21,24.5,17.0,9.5,23.0,12.9,4.5,94,84,75,30.48,30.07,20,4,20,0.00
2013-2-22,31.4,25.5,22.3,30.4,23.9,20.8,96,94,91,30.07,29.81,11,3,19,0.06
2013-2-23,32.7,25.8,18.4,27.1,22.2,15.4,92,86,78,29.95,29.84,12,3,12,0.03
2013-2-24,41.4,23.4,5.7,30.7,17.3,2.9,92,79,54,30.15,29.96,6,1,6,0.02
2013-2-25,42.2,29.7,18.6,29.0,23.2,15.4,90,78,56,30.16,30.04,6,0,6,0.00
2013-2-26,36.4,30.8,25.3,27.9,26.1,22.5,94,83,69,30.05,29.72,25,6,25,0.00
2013-2-27,34.2,31.2,28.3,30.7,28.8,26.8,95,91,84,29.85,29.69,12,4,13,0.05
2013-2-28,33.5,31.3,27.6,28.9,25.7,20.0,90,80,68,30.15,29.85,9,4,14,0.02
2013-3-1,31.7,24.8,12.9,20.8,16.9,7.0,83,72,57,30.28,30.15,12,2,12,0.01
2013-3-2,35.2,16.3,3.8,15.5,6.5,0.1,97,68,36,30.32,30.20,10,2,10,0.00
2013-3-3,33.4,15.6,-0.4,13.2,4.2,-4.1,88,64,23,30.21,30.10,6,1,6,0.00
2013-3-4,31.2,23.4,11.2,24.5,16.6,5.3,83,75,60,30.15,30.02,16,3,16,0.00
2013-3-5,30.0,27.1,25.0,27.9,24.8,22.5,100,91,82,30.17,29.93,12,3,12,0.05
2013-3-6,33.9,25.1,5.9,26.1,20.5,2.3,93,83,71,30.35,30.16,12,3,12,0.11
2013-3-7,39.4,17.4,-3.2,22.4,9.5,-6.8,89,73,46,30.45,30.35,5,1,5,0.02
2013-3-8,42.5,25.4,5.2,28.4,18.5,2.2,100,76,56,30.47,30.25,10,2,10,0.00
2013-3-9,40.9,36.6,32.5,37.9,32.3,25.6,96,85,75,30.25,29.75,11,2,11,0.38
2013-3-10,38.6,36.8,32.9,37.8,35.7,31.9,100,96,93,29.81,29.65,20,3,20,0.48
2013-3-11,33.7,31.7,28.9,32.1,29.7,25.2,97,92,85,29.78,29.58,13,2,13,0.06
2013-3-12,33.4,27.7,23.6,25.5,22.1,17.0,92,79,64,30.07,29.78,12,4,12,0.02
2013-3-13,35.9,25.1,17.4,19.9,13.2,7.4,85,63,32,30.33,30.07,14,3,14,0.00
2013-3-14,38.7,26.1,14.7,29.3,21.2,11.5,90,82,68,30.33,30.05,8,1,8,0.04
2013-3-15,35.3,31.3,26.7,33.2,29.5,24.4,95,93,90,30.05,29.81,13,1,13,0.12
2013-3-16,32.1,25.9,21.2,27.8,20.8,16.0,100,81,62,30.18,29.83,14,3,14,0.01
2013-3-17,32.5,23.4,13.7,19.6,14.0,7.4,83,67,55,30.29,30.02,16,3,16,0.00
2013-3-18,36.6,24.1,15.5,31.5,20.3,10.2,93,85,77,30.02,29.58,17,4,17,0.10
2013-3-19,28.4,19.1,11.0,12.9,9.0,5.7,80,65,44,30.10,29.75,17,7,17,0.01
2013-3-20,21.4,14.3,6.9,7.8,3.5,-2.0,71,62,52,30.14,30.07,16,4,16,0.00
2013-3-21,29.3,15.1,1.4,12.5,6.0,-2.5,86,68,46,30.13,30.05,7,1,8,0.01
2013-3-22,35.4,19.8,3.7,17.9,10.9,0.7,99,71,42,30.11,30.05,7,1,7,0.01
2013-3-23,39.9,28.3,13.7,23.8,18.6,11.2,92,69,44,30.16,30.07,8,1,8,0.00
2013-3-24,33.4,30.9,28.8,28.5,24.5,21.3,90,77,69,30.08,29.83,13,3,14,0.00
2013-3-25,36.1,31.0,22.9,27.0,22.4,18.0,83,70,63,30.14,29.88,13,3,13,0.00
2013-3-26,40.6,34.1,28.3,27.5,23.4,21.5,77,65,51,30.27,30.14,12,2,13,0.00
2013-3-27,44.2,35.1,25.7,27.4,23.9,19.9,85,65,41,30.33,30.27,9,1,9,0.00
2013-3-28,46.2,32.4,20.1,27.4,22.4,18.1,92,70,36,30.37,30.29,7,1,7,0.00
2013-3-29,52.4,35.4,21.4,30.2,24.3,19.7,100,69,31,30.35,30.20,7,1,7,0.00
2013-3-30,52.4,42.7,33.3,41.7,34.3,26.5,95,73,57,30.21,29.82,16,4,16,0.02
2013-3-31,41.3,37.5,30.6,38.2,32.0,18.8,100,81,58,29.95,29.74,12,4,15,0.00
2013-4-1,35.7,29.5,23.8,19.0,15.9,11.7,66,57,41,30.21,29.95,15,4,17,0.00
2013-4-2,39.9,30.5,22.9,19.5,16.4,10.5,83,57,33,30.35,30.21,15,2,15,0.00
2013-4-3,46.9,33.8,19.1,22.1,17.9,10.0,98,56,26,30.48,30.25,10,2,10,0.00
2013-4-4,55.4,42.8,32.1,39.0,28.6,20.6,81,58,44,30.25,29.97,15,3,16,0.00
2013-4-5,49.9,39.6,27.0,29.2,24.9,19.5,85,58,32,30.24,30.07,12,2,12,0.00
2013-4-6,60.2,45.9,34.8,49.5,34.7,19.0,93,66,50,30.09,29.50,17,4,17,0.08
2013-4-7,53.9,43.1,35.1,39.9,35.3,31.3,87,75,54,29.95,29.60,14,2,14,0.00
2013-4-8,63.4,46.3,39.4,48.6,39.8,34.0,92,79,55,29.98,29.67,10,2,10,0.04
2013-4-9,40.1,38.3,34.4,38.4,36.8,32.2,96,94,91,30.10,29.89,18,5,18,1.14
2013-4-10,35.7,33.6,32.1,33.4,32.1,30.8,97,94,85,30.17,29.90,22,6,22,1.15
2013-4-11,38.2,35.5,33.7,37.2,33.9,31.4,100,94,88,29.93,29.60,37,7,37,0.32
2013-4-12,39.2,34.7,32.9,35.5,32.1,29.6,97,90,82,29.79,29.55,11,2,11,0.03
2013-4-13,38.0,34.1,30.6,30.3,28.2,26.1,92,79,68,30.00,29.78,15,4,16,0.00
2013-4-14,48.2,36.6,30.1,41.0,33.3,26.8,95,88,73,30.00,29.59,22,4,22,0.25
2013-4-15,55.7,45.8,37.9,45.6,37.9,31.2,98,76,51,29.97,29.60,20,5,20,0.19
2013-4-16,54.2,41.4,31.6,34.4,30.8,27.7,92,67,43,30.30,29.96,11,2,11,0.00
2013-4-17,41.4,38.6,34.9,38.8,35.0,30.2,96,87,74,30.32,29.86,23,4,23,0.72
2013-4-18,48.9,41.9,36.8,48.4,40.7,34.4,99,95,87,29.86,29.28,21,4,21,0.54
2013-4-19,38.6,34.4,30.0,34.2,28.7,22.3,92,80,61,29.94,29.32,19,7,19,0.02
2013-4-20,46.1,34.7,23.8,27.1,19.8,12.4,88,59,28,30.37,29.94,11,2,11,0.00
2013-4-21,52.9,41.7,28.8,39.0,31.4,23.2,93,68,48,30.46,30.19,16,4,16,0.03
2013-4-22,65.8,53.9,44.7,43.9,40.9,38.3,87,63,43,30.21,29.94,17,3,17,0.05
2013-4-23,57.1,42.0,35.8,47.7,34.9,28.1,90,76,61,30.02,29.86,17,4,17,0.02
2013-4-24,53.7,41.7,30.1,36.8,28.0,20.7,87,61,37,30.06,29.96,24,4,24,0.04
2013-4-25,50.6,42.0,34.6,37.7,33.2,29.0,91,72,47,30.25,29.96,15,4,15,0.00
2013-4-26,70.0,55.5,34.1,49.7,39.5,25.6,86,56,41,30.24,30.07,23,6,23,0.00
2013-4-27,67.0,56.9,45.4,52.0,47.3,42.0,92,72,53,30.18,29.96,15,3,15,0.00
2013-4-28,73.8,56.7,37.3,49.5,43.6,35.8,97,66,35,29.97,29.73,9,1,9,0.00
2013-4-29,70.8,61.0,54.3,59.0,53.2,45.1,91,76,59,29.79,29.62,12,2,12,0.19
2013-4-30,84.4,71.2,60.5,62.3,58.4,48.2,96,67,38,29.85,29.57,20,6,26,0.53
2013-5-1,75.5,59.9,45.9,52.8,47.3,37.9,82,65,41,30.23,29.85,20,4,20,0.00
2013-5-2,45.8,40.3,34.8,38.9,35.3,31.5,91,83,73,30.35,30.22,17,4,17,0.03
2013-5-3,44.1,38.1,33.8,43.2,36.4,31.4,100,94,87,30.28,30.03,10,3,13,0.53
2013-5-4,72.8,56.6,44.1,56.9,49.1,43.3,97,78,55,30.06,29.98,14,2,14,0.00
2013-5-5,77.0,60.3,43.6,52.0,47.0,42.0,96,66,34,30.05,29.95,8,2,12,0.00
2013-5-6,78.5,61.2,42.7,51.5,44.8,39.3,96,62,27,30.06,29.94,10,1,10,0.00
2013-5-7,81.5,63.3,43.1,51.7,43.2,31.2,95,57,18,30.03,29.92,9,1,9,0.00
2013-5-8,82.5,64.7,45.0,56.0,47.9,40.1,94,61,25,29.99,29.89,8,0,8,0.00
2013-5-9,62.9,57.9,49.1,59.9,55.0,47.5,96,90,71,29.92,29.83,16,2,16,0.96
2013-5-10,58.4,48.8,42.6,49.8,44.9,41.3,95,87,70,30.00,29.89,14,2,15,0.25
2013-5-11,53.6,48.0,40.7,49.0,36.7,26.6,96,67,40,30.06,29.79,24,4,24,0.01
2013-5-12,56.7,45.1,35.3,30.9,27.0,21.8,82,51,28,30.14,30.06,16,3,16,0.00
2013-5-13,65.8,50.0,29.1,39.4,32.8,25.6,94,57,26,30.17,29.83,10,2,10,0.00
2013-5-14,90.0,73.1,54.3,61.9,51.5,39.0,73,49,26,29.83,29.46,17,4,17,0.00
2013-5-15,76.8,68.4,54.2,60.2,47.1,39.7,81,48,29,29.81,29.51,16,2,16,0.00
2013-5-16,85.2,66.7,45.6,56.1,48.6,40.9,95,58,27,29.92,29.80,15,1,15,0.00
2013-5-17,62.7,55.9,48.4,55.1,47.8,35.6,95,76,42,30.05,29.91,14,3,14,0.52
2013-5-18,81.1,66.1,50.8,67.0,58.0,48.6,93,76,57,30.03,29.84,5,1,9,0.00
2013-5-19,86.3,73.6,62.3,68.7,63.1,58.8,93,71,47,29.86,29.55,15,2,15,0.00
2013-5-20,81.0,71.2,61.5,66.2,62.7,60.1,96,76,54,29.72,29.52,23,3,23,0.34
2013-5-21,73.5,67.2,59.8,64.5,59.9,56.8,92,78,65,29.64,29.51,16,3,16,0.02
2013-5-22,67.0,61.3,54.5,62.4,58.0,52.8,96,89,78,29.78,29.57,11,1,11,0.12
2013-5-23,66.0,55.1,43.4,52.6,44.5,34.9,96,71,35,30.29,29.78,17,3,17,0.08
2013-5-24,68.3,52.6,35.5,46.7,39.2,33.8,96,64,33,30.44,30.26,9,1,9,0.00
2013-5-25,61.2,54.5,47.7,46.1,43.6,36.9,89,68,45,30.35,30.25,14,0,14,0.07
2013-5-26,65.6,51.4,46.7,53.4,44.8,37.8,89,79,43,30.28,30.12,10,1,16,0.10
2013-5-27,55.9,53.7,51.2,53.9,49.7,43.3,97,87,69,30.12,29.85,13,3,13,0.09
2013-5-28,68.0,57.6,51.0,63.0,55.7,50.3,98,94,83,29.86,29.68,11,1,11,0.20
2013-5-29,85.8,69.9,60.2,69.8,63.8,59.1,99,83,56,29.84,29.72,11,1,11,0.64
2013-5-30,83.1,70.7,62.0,71.4,66.2,59.9,98,86,63,29.81,29.59,13,2,13,0.16
2013-5-31,80.7,69.4,63.1,67.1,62.6,59.8,92,80,55,29.68,29.58,12,3,15,0.00
2013-6-1,76.7,66.5,53.8,64.8,58.5,51.8,95,77,53,29.67,29.56,15,2,15,0.04
2013-6-2,65.5,54.8,45.2,58.2,44.7,40.1,93,70,46,30.00,29.67,15,2,15,0.01
2013-6-3,70.5,56.4,39.2,51.4,44.9,37.9,97,70,39,30.08,29.98,8,1,8,0.00
2013-6-4,65.7,56.5,51.5,58.5,52.7,48.2,96,87,60,30.14,30.03,12,1,12,0.37
2013-6-5,58.2,54.4,50.8,57.3,53.1,49.4,97,95,92,30.10,29.92,11,2,11,0.36
2013-6-6,59.0,55.1,51.4,56.6,53.2,50.5,98,93,87,29.96,29.90,9,1,9,0.15
2013-6-7,72.8,60.4,50.5,55.7,52.4,49.1,95,77,51,29.99,29.89,7,0,7,0.00
2013-6-8,74.7,62.9,55.0,55.7,52.9,48.2,96,72,44,29.95,29.89,9,0,9,0.00
2013-6-9,78.2,64.8,55.5,65.6,58.0,50.0,97,79,55,29.95,29.75,12,2,12,1.02
2013-6-10,81.3,69.0,57.1,66.9,62.6,56.3,100,82,57,29.81,29.73,7,1,7,0.01
2013-6-11,81.8,69.8,54.4,69.9,63.3,53.0,98,81,62,29.86,29.74,7,1,7,0.00
2013-6-12,77.1,68.0,60.0,69.4,65.2,58.9,97,91,75,29.85,29.60,15,2,15,1.02
2013-6-13,81.1,68.4,57.5,63.4,58.6,55.7,98,74,45,30.02,29.72,8,1,11,0.01
2013-6-14,80.8,67.7,52.6,62.3,57.1,50.9,96,71,47,30.10,29.90,9,1,9,0.00
2013-6-15,83.2,69.9,60.5,71.2,64.6,58.8,96,84,64,29.98,29.74,7,1,7,0.26
2013-6-16,85.8,71.9,58.7,67.3,59.2,51.6,98,69,33,29.85,29.79,9,1,9,0.00
2013-6-17,85.5,71.9,59.1,66.4,59.2,53.8,93,67,37,29.91,29.81,12,2,12,0.02
2013-6-18,78.2,65.7,53.9,58.5,53.0,47.8,90,66,41,30.04,29.91,15,2,15,0.00
2013-6-19,81.3,65.2,47.5,59.0,53.2,46.2,100,69,40,30.10,29.99,7,1,7,0.00
2013-6-20,87.3,74.4,58.3,64.9,59.7,52.8,88,62,38,30.07,29.94,9,1,9,0.00
2013-6-21,79.5,72.8,64.9,69.7,65.7,62.3,96,79,66,29.98,29.73,16,1,16,1.22
2013-6-22,85.0,71.7,65.7,71.5,67.5,64.4,97,88,64,30.01,29.81,10,1,10,0.93
2013-6-23,86.8,74.5,63.7,74.8,68.0,62.8,97,81,57,29.98,29.75,11,2,11,0.35
2013-6-24,78.7,72.6,68.1,70.6,67.8,65.5,93,85,70,29.92,29.77,12,1,12,0.01
2013-6-25,85.3,73.6,65.0,75.9,69.7,64.1,98,88,69,29.85,29.70,11,1,11,0.85
2013-6-26,84.8,76.0,68.0,73.3,70.4,65.7,97,84,64,29.70,29.62,7,1,7,0.01
2013-6-27,89.2,77.4,66.9,73.3,67.4,59.9,97,74,45,29.73,29.63,12,1,12,0.00
2013-6-28,77.5,68.0,60.1,69.3,62.5,57.9,96,83,59,29.68,29.58,12,2,12,0.39
2013-6-29,72.5,66.4,63.4,64.7,61.8,56.4,96,86,70,29.82,29.59,12,1,12,0.04
2013-6-30,82.5,68.2,56.3,60.1,54.4,48.2,90,64,33,30.01,29.82,7,1,10,0.00
2013-7-1,84.5,68.3,52.1,61.2,54.4,50.3,97,66,35,30.10,30.01,18,1,18,0.00
2013-7-2,80.0,66.3,54.0,59.4,54.8,47.0,97,70,39,30.08,30.01,13,1,13,0.00
2013-7-3,74.5,61.9,49.2,62.7,55.6,47.3,97,81,64,30.06,29.97,6,0,6,0.00
2013-7-4,83.7,70.0,55.0,64.3,59.8,53.6,97,73,48,30.02,29.92,6,1,6,0.00
2013-7-5,85.8,73.5,58.6,68.7,63.4,57.1,97,73,47,29.98,29.89,8,2,9,0.00
2013-7-6,88.0,75.9,63.6,70.2,65.6,60.7,92,72,47,29.94,29.85,7,1,7,0.00
2013-7-7,88.6,77.6,66.4,75.0,69.9,64.0,94,78,56,29.89,29.81,5,1,6,0.00
2013-7-8,90.3,79.6,70.9,77.5,73.1,69.2,95,81,60,29.90,29.79,8,2,8,0.32
2013-7-9,85.3,76.5,68.5,76.3,72.2,66.9,97,87,70,29.91,29.73,10,2,10,0.28
2013-7-10,80.5,72.5,60.4,70.4,62.0,55.9,92,72,46,29.97,29.77,16,2,16,0.00
2013-7-11,86.8,69.7,54.6,63.6,59.1,53.1,97,73,40,30.07,29.97,7,0,7,0.00
2013-7-12,84.4,70.5,55.4,64.1,59.9,54.0,97,72,41,30.09,30.00,7,1,7,0.00
2013-7-13,84.7,71.5,61.6,67.6,62.2,57.6,91,74,54,30.10,30.00,6,1,6,0.00
2013-7-14,89.0,74.2,57.0,70.6,64.6,55.0,98,74,48,30.16,30.08,7,1,7,0.00
2013-7-15,92.8,79.0,63.7,74.8,70.1,62.0,96,76,53,30.21,30.12,8,0,8,0.00
2013-7-16,92.2,81.6,69.0,77.9,74.0,67.8,97,79,59,30.20,30.14,7,1,7,0.00
2013-7-17,92.7,82.3,71.3,78.6,74.5,69.6,96,79,55,30.21,30.08,6,1,6,0.00
2013-7-18,92.9,82.7,72.1,78.9,73.7,70.3,96,76,54,30.09,29.79,9,2,10,0.00
2013-7-19,91.8,81.0,69.8,76.4,70.1,61.8,82,70,42,29.79,29.66,12,3,12,0.00
2013-7-20,85.2,73.3,59.3,68.7,63.8,57.0,95,74,49,29.89,29.77,9,1,9,0.00
2013-7-21,79.5,67.0,60.8,68.1,61.7,57.1,95,84,65,29.92,29.83,10,1,10,0.42
2013-7-22,86.2,71.9,59.3,74.4,66.6,58.2,98,85,64,29.84,29.56,8,2,8,0.06
2013-7-23,75.3,68.1,54.3,67.9,57.8,52.3,93,71,49,29.95,29.67,13,2,15,0.00
2013-7-24,77.1,62.9,48.3,58.8,53.2,47.2,97,74,43,30.05,29.95,6,0,6,0.00
2013-7-25,79.3,65.5,54.1,67.8,60.4,52.0,96,84,64,30.01,29.88,10,2,10,0.08
2013-7-26,79.0,67.6,58.8,68.5,61.0,52.2,96,81,49,29.91,29.79,12,2,12,0.06
2013-7-27,61.7,54.8,50.2,52.4,48.7,44.1,91,80,63,29.94,29.84,16,2,16,0.02
2013-7-28,67.4,58.4,50.4,56.2,52.4,48.2,95,81,63,30.00,29.83,10,1,10,0.05
2013-7-29,79.7,64.3,50.9,61.6,55.8,49.3,96,76,49,30.11,30.00,7,1,7,0.00
2013-7-30,78.8,66.3,53.8,63.8,59.5,52.0,97,80,53,30.12,30.01,7,0,7,0.00
2013-7-31,81.3,68.9,60.8,68.8,63.1,58.8,97,83,59,30.02,29.90,6,1,8,0.00
2013-8-1,80.3,67.2,53.1,61.9,57.3,51.4,97,74,45,29.97,29.83,9,1,9,0.00
2013-8-2,81.3,70.0,57.5,65.7,59.2,54.0,95,71,42,29.93,29.77,14,1,14,0.00
2013-8-3,79.3,64.4,48.7,59.8,53.7,47.3,97,72,40,30.11,29.93,13,1,13,0.00
2013-8-4,76.8,63.2,47.2,61.7,54.0,45.3,96,74,44,30.19,30.05,5,0,6,0.00
2013-8-5,73.0,64.2,54.1,65.6,60.6,51.8,96,89,72,30.05,29.80,7,1,7,0.18
2013-8-6,83.9,73.3,65.2,72.9,68.3,64.3,98,86,62,29.82,29.69,6,1,8,0.01
2013-8-7,79.0,70.1,58.6,71.8,63.4,56.3,95,80,55,29.94,29.68,9,1,9,0.00
2013-8-8,79.5,66.8,52.6,64.2,58.3,50.9,97,76,54,30.00,29.92,8,0,8,0.00
2013-8-9,81.3,68.6,58.0,64.0,59.1,54.3,94,74,44,30.03,29.92,10,1,10,0.00
2013-8-10,77.3,63.7,49.3,59.3,54.3,47.4,97,74,46,30.12,30.03,7,0,7,0.00
2013-8-11,73.1,63.3,53.6,66.9,60.8,51.1,100,92,80,30.10,29.98,3,0,3,0.26
2013-8-12,81.2,69.9,63.4,70.6,62.8,57.7,98,80,49,29.99,29.86,9,1,9,0.04
2013-8-13,72.8,62.9,51.4,57.9,51.9,47.8,92,69,45,30.13,29.95,11,1,11,0.00
2013-8-14,75.6,60.4,43.9,59.9,51.3,42.6,98,75,44,30.19,30.08,6,0,7,0.00
2013-8-15,79.8,64.5,52.6,61.1,55.9,50.0,96,76,41,30.11,30.04,7,0,7,0.00
2013-8-16,83.6,64.9,47.8,62.5,54.1,46.2,98,72,34,30.15,30.09,5,0,5,0.00
2013-8-17,85.1,66.3,49.3,62.5,55.2,47.4,98,71,39,30.20,30.10,7,0,7,0.00
2013-8-18,84.2,66.6,49.1,63.3,56.3,47.2,97,73,42,30.17,30.02,7,0,7,0.00
2013-8-19,82.9,68.3,53.0,66.4,60.4,51.3,99,78,51,30.04,29.95,10,1,10,0.00
2013-8-20,87.2,74.2,60.5,69.9,65.2,58.7,96,76,53,29.99,29.90,10,2,10,0.00
2013-8-21,89.8,78.6,70.0,74.3,70.1,65.0,93,76,59,29.93,29.82,11,2,11,0.01
2013-8-22,84.3,71.9,61.9,70.8,65.7,59.5,98,83,45,30.08,29.91,12,0,12,0.85
2013-8-23,84.3,69.5,55.1,65.2,59.8,53.7,98,74,45,30.14,30.05,6,0,6,0.00
2013-8-24,84.5,71.6,56.4,71.3,63.4,53.8,94,76,62,30.18,30.06,8,1,8,0.00
2013-8-25,89.7,79.7,71.6,74.9,70.6,67.8,88,74,59,30.10,29.98,12,3,12,0.00
2013-8-26,91.1,80.5,70.8,78.5,72.1,65.8,87,76,64,30.04,29.85,10,1,10,0.00
2013-8-27,92.7,82.3,74.2,78.9,74.2,70.1,91,78,60,29.87,29.71,9,2,9,0.00
2013-8-28,86.8,76.6,68.0,74.4,71.3,65.7,95,84,62,29.97,29.77,8,1,8,0.00
2013-8-29,89.3,75.7,61.3,74.6,68.6,60.2,98,80,61,30.02,29.87,9,1,9,0.00
2013-8-30,91.5,79.6,71.3,79.4,71.9,66.5,96,79,58,29.87,29.71,13,2,13,0.00
2013-8-31,87.8,74.5,64.1,68.3,65.1,61.2,92,74,48,29.82,29.70,9,1,12,0.00
2013-9-1,86.7,73.1,64.3,73.1,65.1,59.1,96,79,43,29.80,29.66,15,1,15,0.00
2013-9-2,70.6,61.8,49.2,60.0,55.3,47.5,96,80,57,29.99,29.80,7,1,11,0.00
2013-9-3,75.5,58.4,42.6,59.0,51.0,41.5,100,79,50,30.08,29.96,8,0,8,0.00
2013-9-4,86.5,66.5,46.5,67.3,57.9,44.9,98,76,49,30.08,30.00,6,0,6,0.01
2013-9-5,81.5,69.4,62.0,63.3,60.7,55.4,94,75,54,30.20,30.07,11,2,11,0.00
2013-9-6,87.5,71.1,55.3,68.4,60.1,48.8,88,69,51,30.15,29.88,8,1,8,0.00
2013-9-7,93.5,78.8,68.6,73.4,67.9,62.5,84,70,50,29.91,29.79,18,1,18,0.00
2013-9-8,72.6,68.3,62.7,67.7,62.8,58.3,87,83,74,30.01,29.88,18,3,18,0.00
2013-9-9,92.6,77.5,64.2,78.7,69.4,61.9,96,77,58,29.90,29.68,8,2,9,0.00
2013-9-10,93.5,82.3,73.2,71.7,67.7,64.2,76,62,45,29.89,29.72,13,2,13,0.00
2013-9-11,82.6,72.8,65.0,70.1,66.8,61.0,97,82,61,30.00,29.89,9,1,9,0.52
2013-9-12,74.0,63.8,55.8,60.9,53.7,45.7,96,72,47,30.14,29.93,18,2,18,0.01
2013-9-13,69.8,54.5,41.2,48.3,42.8,35.8,96,69,31,30.22,30.11,9,1,9,0.00
2013-9-14,72.5,55.9,37.6,52.3,45.9,36.3,98,72,43,30.15,29.94,9,1,9,0.00
2013-9-15,66.3,58.3,54.6,59.4,54.9,52.0,97,89,69,30.23,29.91,9,1,9,0.87
2013-9-16,67.5,54.0,42.7,53.1,45.3,40.4,95,75,42,30.40,30.23,10,1,10,0.01
2013-9-17,67.4,54.0,37.0,57.6,48.9,36.0,98,84,63,30.33,30.03,6,0,6,0.03
2013-9-18,80.0,69.0,59.8,68.6,62.9,56.8,91,82,64,30.03,29.78,10,1,10,0.02
2013-9-19,85.0,71.9,67.4,74.7,68.9,65.6,97,91,69,29.79,29.61,20,1,20,0.60
2013-9-20,67.9,63.4,53.4,67.0,59.9,51.1,98,89,69,29.81,29.66,11,1,11,0.21
2013-9-21,62.8,53.1,44.3,52.2,48.0,42.6,97,84,61,29.94,29.81,10,1,10,0.01
2013-9-22,68.0,51.3,37.8,50.9,44.7,36.5,98,80,52,30.07,29.94,10,1,10,0.01
2013-9-23,71.3,54.9,38.4,55.1,47.9,36.8,98,79,55,30.09,29.98,9,1,9,0.00
2013-9-24,74.2,56.1,39.5,56.6,48.1,37.9,98,77,47,30.01,29.91,9,1,9,0.01
2013-9-25,72.2,54.8,42.4,57.4,49.4,40.6,98,84,57,30.00,29.91,11,1,11,0.00
2013-9-26,77.6,58.6,41.1,59.3,50.9,39.5,98,78,47,30.04,29.95,5,0,7,0.01
2013-9-27,81.8,65.1,48.5,59.8,52.9,46.4,96,68,37,30.07,29.94,10,1,10,0.00
2013-9-28,78.8,63.4,50.8,65.6,56.4,49.1,95,79,57,29.95,29.73,15,2,15,0.32
2013-9-29,70.3,54.9,40.0,55.3,47.4,38.7,98,79,43,30.03,29.92,7,1,7,0.01
2013-9-30,72.3,57.7,44.6,53.3,48.2,43.0,97,74,42,29.94,29.74,9,2,12,0.01
2013-10-1,79.5,65.9,51.8,63.4,57.8,48.4,93,76,50,29.93,29.75,12,2,12,0.00
2013-10-2,78.8,58.0,40.5,52.8,45.8,38.7,97,70,29,30.08,29.90,6,0,7,0.00
2013-10-3,74.1,64.4,56.8,67.8,60.6,48.3,97,88,65,29.91,29.76,9,1,10,1.04
2013-10-4,61.4,60.0,58.5,60.7,59.4,57.9,99,98,97,29.95,29.81,13,2,13,0.28
2013-10-5,72.6,62.9,51.8,70.6,61.9,48.6,99,97,88,29.90,29.67,13,1,13,0.31
2013-10-6,57.9,48.7,39.6,48.8,43.3,38.4,98,83,58,29.74,29.64,6,1,6,0.10
2013-10-7,68.0,52.1,40.7,51.3,45.2,39.3,97,80,44,30.05,29.71,10,1,10,0.01
2013-10-8,74.8,55.1,37.0,53.9,45.2,36.0,98,73,36,30.11,30.01,12,1,12,0.00
2013-10-9,73.7,57.4,45.2,54.7,48.7,42.5,94,75,42,30.15,30.06,9,1,9,0.00
2013-10-10,74.8,54.0,38.2,54.2,46.1,36.8,98,78,44,30.13,29.99,8,0,8,0.01
2013-10-11,75.5,59.4,42.5,61.1,52.2,41.2,98,79,57,30.00,29.83,11,1,11,0.00
2013-10-12,66.8,60.3,41.5,58.8,49.8,38.1,88,70,48,30.14,29.79,13,2,13,0.00
2013-10-13,62.9,45.8,34.4,45.0,37.1,33.1,97,76,39,30.41,30.14,14,1,14,0.00
2013-10-14,62.9,46.2,30.3,45.9,38.9,29.3,98,78,52,30.42,30.09,8,1,12,0.01
2013-10-15,59.7,52.3,46.6,56.3,48.7,42.5,96,88,73,30.10,29.70,11,2,11,0.47
2013-10-16,51.0,48.9,46.2,48.6,46.4,43.3,96,91,85,29.92,29.74,10,1,10,0.00
2013-10-17,58.8,44.9,35.2,44.7,39.3,33.4,97,83,50,29.90,29.78,7,0,7,0.00
2013-10-18,48.2,44.0,37.2,43.5,39.3,35.3,95,84,67,29.93,29.77,16,1,16,0.00
2013-10-19,52.9,39.7,29.0,43.6,35.6,27.8,96,86,53,29.90,29.69,14,2,14,0.04
2013-10-20,48.7,39.7,27.8,45.9,37.0,26.3,97,90,78,29.83,29.67,10,1,10,0.01
2013-10-21,46.5,37.5,30.8,41.5,29.5,23.8,90,73,57,29.95,29.75,12,2,12,0.00
2013-10-22,48.4,34.9,24.0,33.8,27.0,21.2,93,74,47,29.99,29.91,10,1,10,0.00
2013-10-23,42.1,33.6,23.8,32.9,27.6,22.1,94,79,56,30.04,29.97,11,1,11,0.02
2013-10-24,44.9,36.6,29.7,29.3,27.0,25.0,85,69,49,30.30,30.04,14,1,14,0.00
2013-10-25,51.3,40.2,25.4,33.9,29.5,23.2,93,68,46,30.35,29.83,26,4,26,0.00
2013-10-26,50.9,45.6,36.6,37.5,32.5,28.2,80,61,46,30.05,29.74,19,3,23,0.00
2013-10-27,54.7,39.0,26.0,34.4,30.3,24.2,95,74,42,30.05,29.86,13,2,13,0.00
2013-10-28,43.2,39.4,35.9,33.2,30.6,28.9,84,71,62,30.42,30.05,16,4,16,0.00
2013-10-29,55.9,43.4,35.8,41.8,35.0,28.0,84,72,57,30.41,30.10,11,2,12,0.00
2013-10-30,53.9,50.3,44.9,52.6,47.9,40.4,97,91,84,30.11,29.69,15,1,15,0.00
2013-10-31,58.1,51.7,42.7,57.5,50.5,39.9,99,96,89,29.69,29.28,7,1,11,0.72
2013-11-1,46.9,43.0,35.3,44.5,39.8,33.1,93,89,80,29.75,29.32,10,2,11,0.04
2013-11-2,47.8,39.6,29.4,37.8,34.6,26.7,100,83,63,30.16,29.75,8,1,11,0.00
2013-11-3,51.4,38.0,23.5,39.3,31.0,22.0,97,78,55,30.28,30.14,12,2,12,0.00
2013-11-4,52.1,47.5,43.1,45.4,40.2,35.1,88,76,66,30.16,29.98,12,4,12,0.00
2013-11-5,53.7,46.5,33.4,52.6,44.4,31.3,98,93,83,30.24,29.77,10,1,10,0.88
2013-11-6,54.5,40.9,31.1,53.4,35.0,23.6,96,80,48,30.16,29.70,16,4,16,0.27
2013-11-7,41.1,32.9,26.9,32.1,28.1,23.5,91,82,68,30.25,30.16,12,1,12,0.00
2013-11-8,46.1,35.4,21.0,37.5,28.8,19.3,96,78,57,30.28,29.74,14,2,14,0.02
2013-11-9,51.2,45.4,37.0,41.5,36.3,27.4,81,71,58,30.10,29.70,18,6,18,0.00
2013-11-10,47.9,41.5,36.7,32.8,30.6,28.0,76,65,52,30.32,30.09,13,3,13,0.00
2013-11-11,42.5,31.0,19.5,33.8,24.2,13.4,93,76,61,30.61,30.04,16,3,16,0.06
2013-11-12,27.9,21.2,15.4,16.7,13.5,10.4,82,72,56,30.77,30.58,8,2,9,0.00
2013-11-13,43.4,31.3,18.3,27.1,18.6,13.7,83,61,47,30.58,30.03,18,5,18,0.00
2013-11-14,47.5,39.8,31.6,32.4,27.2,19.3,70,61,50,30.03,29.85,14,4,14,0.00
2013-11-15,54.2,41.9,26.9,40.3,33.5,23.7,90,73,56,29.91,29.82,9,2,9,0.00
2013-11-16,59.5,48.6,38.2,56.3,46.1,33.8,96,91,80,29.83,29.36,17,4,17,0.41
2013-11-17,57.7,49.7,38.3,55.3,46.6,32.1,97,89,76,29.67,29.18,23,5,23,0.44
2013-11-18,37.7,32.3,23.1,32.1,25.1,20.1,88,75,64,30.28,29.68,22,4,22,0.00
2013-11-19,41.4,34.3,20.5,30.2,25.6,18.1,94,71,54,30.36,30.20,9,2,9,0.00
2013-11-20,40.7,36.8,35.2,35.2,31.0,28.1,94,80,62,30.20,30.06,16,3,16,0.05
2013-11-21,41.8,38.7,36.9,38.3,36.7,35.2,95,92,85,30.19,30.08,6,0,6,0.00
2013-11-22,37.6,31.6,27.8,34.7,28.6,24.4,89,89,87,30.47,30.26,8,4,8,0.00
2013-11-23,25.3,16.9,9.8,16.4,7.1,3.8,77,65,52,30.77,30.44,7,4,20,0.00
2013-11-24,26.0,17.2,6.5,9.4,6.3,3.0,87,64,42,30.75,30.26,8,4,22,0.00
2013-11-25,33.1,29.1,23.1,27.2,24.3,8.8,88,82,51,30.25,30.00,17,5,18,0.00
2013-11-26,34.2,24.9,13.2,27.1,15.2,3.9,83,67,50,30.28,30.01,18,4,18,0.00
2013-11-27,26.7,19.2,10.5,15.0,10.2,4.3,92,68,51,30.33,30.20,13,2,13,0.00
2013-11-28,30.8,25.4,22.0,18.0,15.0,12.3,74,64,55,30.53,30.15,12,2,12,0.00
2013-11-29,31.2,22.5,9.4,21.8,15.5,6.2,91,75,59,30.63,30.32,8,2,8,0.00
2013-11-30,44.2,34.0,29.2,31.1,26.3,21.5,87,74,59,30.32,30.02,8,2,11,0.00
2013-12-1,40.3,31.2,22.5,29.5,25.6,19.8,93,80,60,30.17,29.98,4,0,7,0.00
2013-12-2,39.7,30.4,17.8,33.0,27.0,15.2,95,87,76,29.98,29.72,11,2,11,0.07
2013-12-3,36.4,34.7,33.5,35.9,33.8,32.7,98,97,95,29.76,29.67,15,3,15,0.10
2013-12-4,46.6,36.4,32.3,46.2,35.5,28.1,99,97,84,29.76,29.42,20,4,20,0.03
2013-12-5,32.4,18.7,10.2,28.3,12.5,4.4,86,76,66,30.33,29.64,19,5,20,0.00
2013-12-6,13.9,9.0,5.1,4.9,2.7,0.5,84,75,64,30.63,30.32,12,2,13,0.00
2013-12-7,13.5,5.5,-0.8,2.2,-1.2,-4.7,92,74,54,30.77,30.63,11,2,11,0.00
2013-12-8,14.6,11.2,4.7,12.5,7.0,-0.3,91,83,68,30.66,30.02,13,2,13,0.00
2013-12-9,15.3,7.0,-4.6,11.2,2.7,-9.0,91,82,72,30.22,29.99,20,4,20,0.00
2013-12-10,16.3,8.4,-4.3,10.6,2.3,-8.4,85,76,63,30.30,29.93,16,4,16,0.00
2013-12-11,13.6,4.5,-6.9,10.5,-2.6,-13.1,87,72,56,30.57,30.28,15,2,15,0.00
2013-12-12,20.0,10.8,-3.5,11.9,4.2,-8.6,82,74,66,30.52,30.21,11,3,11,0.00
2013-12-13,23.4,17.6,12.0,15.3,12.1,7.8,88,79,67,30.27,30.17,16,4,16,0.00
2013-12-14,23.5,19.0,15.9,18.6,15.1,10.2,89,84,78,30.26,29.99,13,2,15,0.00
2013-12-15,16.6,8.4,1.5,12.4,0.5,-7.0,84,70,56,30.20,29.99,14,3,14,0.00
2013-12-16,15.0,7.0,-5.6,13.1,1.9,-10.4,92,79,61,30.21,30.05,7,1,7,0.00
2013-12-17,34.3,24.7,15.1,26.8,19.0,10.6,93,79,63,30.10,29.92,16,4,16,0.06
2013-12-18,35.6,22.8,3.1,27.6,15.5,-1.2,90,74,55,30.12,29.75,17,2,17,0.00
2013-12-19,31.5,25.2,18.0,25.6,21.4,14.8,94,85,75,30.01,29.79,23,4,23,0.00
2013-12-20,24.0,21.9,20.0,21.6,19.8,17.8,94,92,89,29.95,29.84,11,2,13,0.00
2013-12-21,26.6,24.7,22.7,26.6,22.8,21.2,100,92,86,29.93,29.80,10,2,11,0.00
2013-12-22,26.5,23.9,19.8,24.0,21.7,18.1,94,91,87,30.14,29.78,12,2,12,0.00
2013-12-23,21.6,9.1,-4.5,20.0,4.7,-8.6,94,82,71,30.50,30.14,8,2,8,0.00
2013-12-24,13.5,-0.5,-19.2,6.8,-5.2,-23.7,88,80,65,30.61,30.32,9,1,9,0.00
2013-12-25,23.7,18.0,8.8,22.5,15.1,5.6,98,88,82,30.32,30.08,10,3,10,0.00
2013-12-26,26.1,19.7,8.8,22.5,15.5,4.9,98,84,73,30.23,30.12,8,1,8,0.01
2013-12-27,36.1,24.3,4.2,30.3,19.9,1.2,100,84,76,30.26,30.00,15,2,15,0.01
2013-12-28,42.8,32.8,15.1,32.5,27.1,12.7,96,80,66,30.05,29.73,10,2,10,0.07
2013-12-29,37.2,16.3,-7.7,32.5,10.5,-14.5,91,78,68,30.30,29.72,20,4,20,0.01
2013-12-30,3.3,-5.3,-18.7,-1.1,-11.6,-23.4,92,74,53,30.39,30.27,7,1,7,0.00
2013-12-31,7.7,2.5,-5.3,2.0,-2.7,-9.4,86,78,69,30.42,30.25,5,1,9,0.00
2014-1-1,10.1,4.5,-1.2,-0.8,-4.5,-8.4,75,66,56,30.47,30.38,9,2,9,0.00
2014-1-2,12.0,4.1,-15.3,2.3,-3.8,-20.4,81,70,54,30.50,30.35,10,2,13,0.00